TimeMDT,TemperatureF,Dew PointF,Humidity,Sea Level PressureIn,VisibilityMPH,Wind Direction,Wind SpeedMPH,Gust SpeedMPH,PrecipitationIn,Events,Conditions,WindDirDegrees,DateUTC
12:15 AM,66.2,60.8,83,30.00,10.0,SE,9.2,-,N/A,,Clear,140,2012-10-13 06:15:00
12:35 AM,68.0,60.8,78,30.00,10.0,SSE,11.5,-,N/A,,Scattered Clouds,150,2012-10-13 06:35:00
1:15 AM,68.0,59.0,73,29.99,10.0,SSE,18.4,26.5,N/A,,Mostly Cloudy,150,2012-10-13 07:15:00
1:35 AM,68.0,57.2,68,29.99,10.0,SSE,18.4,25.3,N/A,,Scattered Clouds,160,2012-10-13 07:35:00
1:55 AM,66.2,57.2,73,29.99,10.0,SSE,15.0,-,N/A,,Partly Cloudy,160,2012-10-13 07:55:00
2:15 AM,66.2,57.2,73,30.00,10.0,South,8.1,-,N/A,,Partly Cloudy,180,2012-10-13 08:15:00
2:35 AM,66.2,57.2,73,30.00,10.0,South,10.4,-,N/A,,Partly Cloudy,180,2012-10-13 08:35:00
2:55 AM,64.4,57.2,77,30.00,10.0,South,8.1,-,N/A,,Partly Cloudy,170,2012-10-13 08:55:00
3:15 AM,66.2,57.2,73,29.99,10.0,South,11.5,-,N/A,,Partly Cloudy,170,2012-10-13 09:15:00
3:35 AM,64.4,57.2,77,29.99,10.0,South,11.5,-,N/A,,Scattered Clouds,170,2012-10-13 09:35:00
3:55 AM,64.4,57.2,77,30.00,10.0,SSE,12.7,-,N/A,,Partly Cloudy,160,2012-10-13 09:55:00
4:15 AM,64.4,57.2,77,30.00,10.0,South,12.7,-,N/A,,Partly Cloudy,170,2012-10-13 10:15:00
4:35 AM,64.4,57.2,77,30.00,10.0,South,10.4,-,N/A,,Partly Cloudy,170,2012-10-13 10:35:00
5:45 AM,60.8,57.2,88,30.02,10.0,South,9.2,-,N/A,,Clear,180,2012-10-13 11:45:00
6:45 AM,60.8,57.2,88,30.03,10.0,South,10.4,-,N/A,,Scattered Clouds,170,2012-10-13 12:45:00
8:45 AM,68.0,51.8,56,30.06,10.0,SSW,11.5,-,N/A,,Clear,210,2012-10-13 14:45:00
9:50 AM,73.4,37.4,27,30.05,10.0,WSW,17.3,-,N/A,,Clear,240,2012-10-13 15:50:00
10:50 AM,75.2,35.6,24,30.03,10.0,SW,23.0,28.8,N/A,,Clear,230,2012-10-13 16:50:00
11:50 AM,77.0,33.8,21,30.02,10.0,SW,23.0,35.7,N/A,,Clear,230,2012-10-13 17:50:00
12:50 PM,77.0,32.0,19,30.01,10.0,WSW,25.3,32.2,N/A,,Clear,240,2012-10-13 18:50:00
1:50 PM,77.0,30.2,18,29.98,10.0,WSW,25.3,32.2,N/A,,Clear,240,2012-10-13 19:50:00
2:50 PM,77.0,30.2,18,29.97,10.0,WSW,19.6,25.3,N/A,,Clear,240,2012-10-13 20:50:00
3:50 PM,75.2,32.0,21,29.98,10.0,West,11.5,17.3,N/A,,Clear,270,2012-10-13 21:50:00
4:50 PM,75.2,32.0,21,29.97,10.0,West,11.5,-,N/A,,Clear,270,2012-10-13 22:50:00
6:15 PM,69.8,35.6,28,30.00,10.0,NW,8.1,-,N/A,,Clear,310,2012-10-14 00:15:00
6:35 PM,66.2,33.8,30,30.01,10.0,NW,8.1,-,N/A,,Clear,310,2012-10-14 00:35:00
6:55 PM,62.6,33.8,34,30.01,10.0,NW,8.1,-,N/A,,Clear,310,2012-10-14 00:55:00
7:15 PM,60.8,35.6,39,30.02,10.0,NW,8.1,-,N/A,,Clear,310,2012-10-14 01:15:00
7:35 PM,59.0,33.8,39,30.03,10.0,WNW,8.1,-,N/A,,Clear,300,2012-10-14 01:35:00
7:55 PM,59.0,32.0,36,30.04,10.0,WNW,9.2,-,N/A,,Clear,300,2012-10-14 01:55:00
8:15 PM,59.0,33.8,39,30.05,10.0,NW,9.2,-,N/A,,Clear,310,2012-10-14 02:15:00
9:15 PM,57.2,35.6,44,30.07,10.0,WNW,6.9,-,N/A,,Clear,300,2012-10-14 03:15:00
10:15 PM,59.0,32.0,36,30.09,10.0,WNW,8.1,-,N/A,,Clear,290,2012-10-14 04:15:00
10:35 PM,55.4,33.8,44,30.10,10.0,West,6.9,-,N/A,,Clear,280,2012-10-14 04:35:00
11:15 PM,55.4,33.8,44,30.10,10.0,West,8.1,-,N/A,,Clear,280,2012-10-14 05:15:00
11:35 PM,57.2,33.8,41,30.10,10.0,WNW,9.2,-,N/A,,Clear,290,2012-10-14 05:35:00